Location: Équennes
(49.7375°N, 1.9622°E)
Time: 19:14:15
(UTC+00:00)

Cosmos 2278 - Pass Details

Date: 26 September 2023
Orbit: 838 x 853 km, 71.1° (Epoch: 08 December)

Event Time Altitude Azimuth Distance (km) Brightness Sun altitude
Rises 23:57:39 0° 332° (NNW) 3,425 7.5 -41.2°
Reaches altitude 10° 00:01:18 10° 356° (N) 2,489 6.8 -41.2°
Maximum altitude 00:04:29 15° 30° (NNE) 2,155 6.3 -41.1°
Enters shadow 00:06:55 12° 57° (ENE) 2,356 6.3 -41.1°
